Home > Weather > Florida > Past weeks

Flag for Uruguay Weather for the Past 2 Weeks in Florida, Uruguay

Now
39 °F

Clear.


Feels Like: 39 °F
Forecast: 38 / 59 °F
Wind: 2 mph from Northwest

Location: Carrasco

Current Time: May 4, 2016 at 6:56:53 AM

Latest Report: May 4, 2016 at 6:00 AM


Visibility: 5 mi

Pressure: 30.15 "Hg

Humidity: 87%

Dew Point: 36 °F

Location of FloridaLocation

Historic Weather in Florida — Graph

°F

Florida Temperature Yesterday

Maximum temperature yesterday: 55 °F (at 12:00 AM)
Minimum temperature yesterday: 45 °F (at 10:00 PM)
Average temperature yesterday: 53 °F

High & Low Weather Summary for the Past Weeks

 TemperatureHumidityPressure
High72 °F (Apr 21, 1:00 PM)100% (Apr 19, 5:00 AM)30.27 "Hg (Apr 19, 5:00 AM)
Low39 °F (May 4, 4:00 AM)45% (May 1, 2:00 PM)29.62 "Hg (Apr 19, 4:00 PM)
Average56 °F77%30.01 "Hg
* Reported Apr 19 5:00 AM — May 4 5:00 AM, Florida, Weather by CustomWeather, © 2016

Note: Actual official high and low records may vary slightly from our data, if they occured in-between our weather recording intervals... More about our weather records

Advertising

Florida Weather History for the Previous 24 Hours

Scroll right to see more
 ConditionsComfort  
Time TempWeatherWind HumidityBarometerVisibility
5:00 AM
Wed, May 4
39 °FClear.3 mph87%30.15 "Hg4 mi
4:00 AM39 °FFog.3 mph87%30.15 "Hg3 mi
3:00 AM41 °FFog.3 mph87%30.18 "Hg3 mi
2:00 AM41 °FFog.No wind87%30.18 "Hg2 mi
1:00 AM41 °FFog.3 mph87%30.18 "Hg1 mi
12:00 AM41 °FFog.2 mph87%30.21 "Hg1 mi
11:00 PM
Tue, May 3
45 °FFog.No wind81%30.21 "Hg2 mi
10:00 PM45 °FFog.No wind81%30.21 "Hg3 mi
9:00 PM50 °FClear.3 mph67%30.21 "Hg10 mi
8:00 PM50 °FClear.5 mph67%30.21 "Hg10 mi
7:00 PM52 °FPassing clouds.No wind62%30.24 "HgN/A
6:00 PM52 °FPassing clouds.No wind62%30.24 "HgN/A
5:00 PM54 °FPassing clouds.7 mph54%30.24 "HgN/A
4:00 PM54 °FMore clouds than sun.5 mph63%30.21 "HgN/A
3:00 PM54 °FMore clouds than sun.3 mph63%30.24 "HgN/A
2:00 PM55 °FOvercast.5 mph59%30.24 "HgN/A
1:00 PM55 °FOvercast.6 mph59%30.27 "HgN/A
12:00 PM55 °FOvercast.8 mph59%30.27 "HgN/A
11:00 AM54 °FOvercast.9 mph58%30.27 "HgN/A
10:00 AM54 °FOvercast.7 mph58%30.27 "HgN/A
9:00 AM54 °FPartly sunny.9 mph63%30.24 "HgN/A
8:00 AM54 °FPartly sunny.10 mph67%30.24 "HgN/A
7:00 AM54 °FOvercast.9 mph67%30.24 "HgN/A
6:00 AM54 °FOvercast.7 mph67%30.24 "HgN/A
Weather by CustomWeather, © 2016

See weather overviewHow to use our weather pages